Wind_Speed
32 35 38 41 42 44 45 45 45 45 45 44 45 44 44 44 44 44 43 42 42 41 41 41 41 41 41 41 40 40 40 40 40 40 40 40 41 41 41 42 42 43 44 45 46 46 47 47 48 49 49 50 51 51 52 53 53 54 54 55 55 56 56 56 55 55 55 54 54 54 53 52 50 49 49 48 48 48 48 48 49 49 49 49 50 51 51 52
29 31 35 38 42 44 46 47 47 47 46 46 46 46 45 45 45 44 44 43 42 42 42 42 41 41 41 41 41 40 40 40 40 40 40 40 41 41 41 42 43 43 44 45 46 47 48 48 48 49 49 50 51 51 51 52 52 53 54 54 55 55 54 54 54 54 54 54 53 53 52 50 49 48 48 47 47 48 49 49 49 49 49 50 51 51 52 53
27 29 32 36 39 43 46 48 49 49 49 48 48 47 47 46 46 45 45 44 43 43 42 42 42 42 42 41 41 41 41 41 41 40 40 41 41 41 42 42 43 44 45 45 46 47 47 47 48 48 49 49 50 50 50 51 52 53 53 53 53 53 53 53 53 53 53 53 52 51 50 49 48 47 47 47 47 48 50 50 50 50 50 50 51 52 53 54
25 27 30 33 36 39 43 47 50 51 51 51 50 49 48 48 47 47 47 45 44 44 44 43 43 43 43 42 42 42 42 42 42 41 41 41 42 42 43 43 44 44 45 45 45 46 46 46 47 47 48 48 49 49 50 51 51 52 52 52 52 52 52 53 53 53 53 52 51 49 48 47 47 47 47 47 48 49 51 50 50 51 51 51 52 53 54 55
23 25 27 29 32 35 39 43 47 51 53 53 52 51 50 49 48 48 48 46 45 44 44 44 44 44 44 43 43 43 43 43 43 42 42 43 43 43 43 44 44 44 44 45 45 45 46 46 46 47 47 48 49 50 50 51 51 51 51 51 51 52 52 53 53 53 52 51 49 48 47 46 46 46 47 48 48 50 52 51 51 52 52 53 54 55 56 57
19 21 23 26 29 32 35 38 43 47 50 53 54 53 52 51 49 49 48 47 46 44 44 44 44 45 44 44 43 43 43 43 43 43 43 43 43 43 43 43 44 44 44 45 45 45 46 46 46 47 48 48 49 49 50 50 50 50 50 51 52 52 53 53 53 52 50 49 47 46 46 46 46 46 47 48 49 50 52 52 52 53 54 54 56 57 58 59
16 19 21 23 26 29 32 36 39 42 45 49 52 54 54 52 51 50 49 47 46 45 44 44 44 45 45 44 43 43 43 43 43 43 43 43 42 42 42 43 43 44 44 45 45 46 46 46 47 47 48 48 49 49 48 49 49 49 50 51 52 52 52 52 51 49 48 46 46 46 46 46 46 46 48 49 49 50 52 53 54 54 55 56 58 59 60 61
14 16 18 20 22 26 30 34 38 39 41 43 46 50 53 53 52 51 50 47 46 45 44 44 44 44 44 44 44 44 43 43 43 42 42 41 41 41 42 42 43 43 44 45 45 45 46 46 47 47 47 47 47 47 47 47 48 49 50 51 51 52 51 50 49 47 46 45 45 46 46 47 47 46 48 49 50 52 53 55 55 55 56 58 59 61 61 63
12 14 15 17 18 20 24 30 35 38 38 38 40 43 47 50 52 52 50 48 46 45 45 44 43 43 44 44 44 43 42 42 42 41 41 40 40 41 41 42 42 42 43 44 44 44 45 45 45 45 45 45 45 46 46 47 48 49 50 51 51 50 49 48 46 45 45 45 46 47 48 49 48 47 48 50 51 53 55 56 56 56 58 60 61 62 63 65
10 12 12 13 13 15 19 24 29 34 35 35 35 37 41 45 49 50 49 48 46 45 44 43 43 43 44 44 43 42 42 41 41 40 40 39 40 40 41 41 41 42 42 42 42 43 43 43 44 44 44 44 45 45 46 47 48 49 50 50 50 48 47 46 45 45 45 45 46 48 50 50 48 48 49 51 53 55 57 57 57 58 59 61 63 64 65 66
9 9 9 10 10 12 14 17 21 26 30 32 33 35 37 40 42 44 45 46 45 44 43 42 43 44 43 43 42 41 41 40 39 39 39 39 39 40 40 40 40 40 40 41 41 41 42 42 42 42 43 43 44 45 46 48 49 49 49 49 48 46 45 45 45 46 46 46 47 48 52 53 50 49 50 52 54 57 58 58 58 59 61 63 65 66 67 68
8 7 6 7 7 8 9 10 14 19 24 30 32 34 35 35 36 38 40 42 43 43 42 42 43 43 42 41 41 40 40 40 39 39 39 39 39 39 39 39 39 39 39 39 40 40 40 40 40 40 41 43 44 45 47 48 48 48 48 47 46 45 45 45 46 46 46 47 48 48 53 56 52 51 52 53 56 59 60 61 60 61 63 65 66 67 68 69
7 7 5 5 5 5 4 4 9 15 21 27 31 32 32 33 34 35 37 39 40 40 40 41 41 41 40 39 39 40 40 39 38 38 38 37 37 37 37 37 37 37 38 38 38 38 38 38 39 40 42 44 45 47 47 47 47 47 47 46 46 46 45 45 46 47 47 48 50 49 52 58 56 53 54 55 58 60 62 63 62 63 65 66 67 68 69 70
7 7 6 4 3 3 1 1 5 12 19 24 28 30 31 31 31 31 32 34 34 35 37 38 38 37 38 38 39 39 37 36 35 35 35 35 35 35 35 35 35 36 36 36 35 36 36 37 39 41 43 45 46 46 46 47 47 46 46 46 46 46 45 46 47 48 49 49 51 50 51 57 58 55 55 56 58 61 63 64 64 65 66 67 68 69 71 71
7 7 8 6 3 1 1 2 5 11 16 21 25 28 29 28 28 26 26 27 28 29 31 32 32 33 35 36 36 35 34 33 32 33 33 33 33 33 33 33 33 33 33 33 34 35 36 38 41 43 44 45 45 45 46 45 45 45 46 46 47 47 46 47 48 49 49 50 51 51 52 57 59 57 56 57 59 61 64 65 65 66 67 68 69 70 71 72
6 7 8 8 5 2 2 4 5 8 11 14 19 24 25 24 24 24 23 22 23 25 27 28 29 30 32 32 32 32 31 32 32 32 31 31 31 31 31 31 31 32 32 33 34 36 38 40 43 44 43 43 43 44 44 44 45 45 46 47 47 47 47 47 49 49 50 51 52 53 54 58 60 59 59 59 60 62 64 66 66 67 68 69 70 71 72 73
6 7 8 8 8 6 3 5 6 8 9 10 14 18 20 21 22 22 22 24 26 28 29 29 29 30 31 31 31 31 31 31 30 30 29 29 30 30 30 30 30 31 32 34 35 38 40 42 42 41 41 41 41 42 43 43 45 46 46 47 47 48 48 48 49 50 51 52 54 54 56 60 62 61 61 61 62 63 65 67 68 69 69 70 71 72 73 74
7 8 9 9 10 10 8 6 6 8 9 10 12 14 17 20 21 22 23 25 27 28 29 29 30 31 31 31 31 31 30 28 28 28 28 28 29 29 28 29 29 31 33 35 37 39 41 40 39 39 39 40 40 41 42 44 45 46 47 47 48 49 49 49 50 51 52 54 56 56 57 61 63 64 64 64 64 65 67 68 70 70 71 72 72 73 74 74
9 9 10 11 11 12 12 11 9 8 8 9 12 15 17 19 21 23 24 25 26 27 28 29 30 30 31 31 30 29 27 26 26 27 28 27 27 27 27 28 30 32 34 36 38 39 39 38 38 38 39 40 41 42 43 44 45 46 47 47 48 49 50 51 51 52 53 54 57 59 60 63 64 66 66 66 67 67 68 70 70 71 72 72 73 73 74 75
12 12 12 13 14 14 14 14 13 12 10 9 11 14 18 21 22 23 24 25 26 26 27 28 29 29 29 28 28 28 27 27 27 27 27 26 26 27 28 29 31 33 35 37 38 39 38 38 38 38 39 40 41 42 44 45 45 46 47 48 48 49 51 52 52 54 54 55 58 60 62 66 66 66 67 68 68 69 70 71 71 72 72 72 72 73 75 75
14 14 14 14 15 16 16 16 16 15 14 14 13 14 17 21 22 23 24 24 25 26 27 28 28 27 26 25 26 27 27 27 28 28 26 26 27 28 30 31 33 35 36 37 38 39 38 38 39 39 40 41 42 43 44 45 46 46 47 48 49 49 51 53 54 55 56 56 58 60 63 68 69 68 68 68 69 70 71 71 72 72 71 71 72 74 75 75
15 16 16 16 16 18 18 18 18 18 19 19 17 17 17 19 20 21 22 22 23 24 24 25 27 26 26 26 26 26 26 27 28 28 27 27 29 30 32 33 35 36 37 38 39 39 39 39 40 40 41 42 43 44 45 46 46 47 47 48 49 50 51 53 55 56 57 57 58 60 63 68 71 69 68 68 69 70 71 71 72 71 71 71 72 74 75 75
17 17 17 18 18 19 19 20 20 21 22 22 21 20 19 19 19 19 21 21 23 23 22 23 27 28 27 27 27 27 28 29 29 29 28 29 31 32 34 35 36 37 37 39 40 40 40 41 41 42 42 43 44 45 45 47 47 48 48 49 50 51 51 52 54 56 58 59 58 59 61 67 73 72 69 69 69 70 71 71 71 70 70 71 73 75 76 74
19 18 19 19 19 20 20 21 21 22 25 24 23 23 22 22 21 22 23 24 25 25 23 24 28 29 28 28 29 30 31 31 30 29 30 31 33 34 36 37 37 37 38 40 41 42 42 42 43 43 44 45 46 46 47 48 49 49 49 49 50 51 52 53 53 55 57 60 60 60 60 66 75 74 70 70 69 70 71 70 69 69 70 72 74 75 75 73
20 20 20 20 21 21 22 23 23 24 26 25 25 26 25 25 25 26 26 26 27 28 26 25 27 29 28 29 31 31 31 31 30 30 31 33 35 36 38 38 38 39 40 41 42 43 44 44 45 45 46 47 48 48 49 49 50 51 51 51 51 52 53 54 55 56 57 59 62 62 60 64 74 76 71 69 69 69 70 69 69 69 70 73 74 74 73 71
22 22 22 21 22 23 24 24 24 25 26 26 27 28 28 28 29 30 29 29 29 30 30 28 29 29 29 30 32 32 32 31 31 32 33 34 36 38 38 39 40 41 41 42 44 45 45 46 47 48 49 49 50 51 51 50 50 51 52 52 52 53 54 55 56 57 58 59 61 63 62 63 71 75 71 69 70 70 70 69 69 69 71 73 73 72 70 67
25 25 24 24 24 25 25 25 25 26 27 28 29 30 30 30 31 32 32 33 33 33 33 31 30 30 31 34 34 33 32 33 33 33 35 36 38 39 39 41 42 43 43 43 45 46 46 47 49 50 51 51 53 53 53 52 52 52 53 53 54 54 55 56 57 58 59 60 60 62 63 64 71 75 71 69 70 70 69 68 68 69 71 72 71 68 64 59
27 27 26 26 26 26 27 27 27 28 30 30 31 31 31 32 33 33 34 35 34 33 33 32 31 31 33 34 34 32 33 33 34 36 37 38 39 40 41 43 44 44 45 45 46 48 48 49 50 52 53 54 54 55 55 54 54 54 54 54 55 55 56 56 57 58 58 59 60 61 63 65 72 77 75 71 70 69 68 67 67 68 70 69 65 60 56 51
29 29 29 28 28 28 29 29 29 30 32 32 32 32 32 33 33 34 35 34 33 32 32 30 30 31 32 33 32 31 32 34 36 39 40 40 40 41 43 45 45 45 46 46 47 48 49 51 52 53 54 55 56 57 57 56 56 55 55 55 55 55 56 55 56 57 57 58 59 61 63 66 72 78 78 74 69 66 65 65 66 66 64 61 56 52 50 49
30 31 31 30 30 30 31 31 31 32 32 32 33 33 32 33 34 35 35 34 32 31 29 28 30 31 31 30 29 30 33 36 39 40 40 40 42 43 44 45 45 45 46 48 49 49 51 52 53 55 56 57 58 59 58 57 57 57 56 56 55 55 55 55 56 57 57 58 59 61 64 67 72 77 78 73 66 61 61 62 62 59 56 53 50 48 49 50
30 31 31 30 29 30 30 30 30 31 31 31 32 31 31 32 34 36 36 34 33 31 30 29 30 29 27 28 29 32 35 38 39 39 40 42 44 45 45 44 45 45 46 49 50 50 52 53 55 56 57 58 60 60 59 58 58 58 58 58 56 56 55 54 56 57 58 58 59 61 63 67 72 76 76 70 63 57 56 56 54 51 50 50 50 50 51 52
27 27 27 27 26 26 27 27 28 28 29 30 30 30 31 32 33 33 33 32 32 31 30 29 29 28 28 30 32 34 36 38 39 39 41 44 45 45 45 44 45 46 47 49 50 51 53 55 56 57 58 60 61 61 60 59 59 59 60 60 59 58 56 55 56 57 57 57 57 58 61 65 71 75 73 66 58 52 50 50 48 47 49 50 52 53 54 55
22 21 21 21 21 22 23 24 25 26 27 27 28 28 29 29 29 29 29 28 28 27 27 26 26 27 28 31 32 33 35 37 39 41 43 45 45 45 45 46 47 48 49 50 51 51 53 55 57 58 59 61 62 61 60 59 59 60 61 62 62 62 60 57 56 56 55 54 53 55 59 64 70 73 69 59 50 46 47 48 49 50 51 53 55 56 57 58
17 17 17 17 18 19 20 21 22 23 24 25 25 26 26 25 25 25 25 24 24 24 23 23 25 27 29 31 32 34 36 39 41 43 44 44 44 45 47 48 50 52 53 53 52 52 53 55 57 59 60 61 62 61 61 60 59 60 62 63 63 65 64 61 58 56 53 51 51 54 59 64 69 69 60 50 45 46 49 51 53 54 55 56 57 59 60 61
14 14 14 14 15 16 17 18 19 20 21 22 23 23 23 22 23 23 22 22 22 23 23 25 28 31 32 33 35 37 39 42 43 44 44 44 45 47 49 51 53 54 54 54 54 53 53 55 57 59 61 62 62 61 61 61 60 60 61 63 64 65 65 63 59 56 54 51 50 54 58 62 64 59 53 48 48 50 53 56 58 59 60 61 62 63 65 67
13 12 12 12 13 14 15 16 17 18 19 20 21 21 21 21 21 20 20 22 22 23 24 27 31 33 35 36 37 39 41 43 44 44 45 46 47 50 52 53 55 55 54 54 55 55 55 55 58 60 61 62 62 61 61 62 62 62 62 64 64 64 63 62 58 57 56 51 48 50 53 56 55 52 51 51 52 54 57 60 63 65 67 68 69 70 72 73
13 11 10 11 12 14 15 16 17 18 18 19 19 20 19 18 18 19 20 22 23 25 26 29 31 34 36 38 40 41 43 44 44 45 46 48 51 53 54 54 54 54 54 55 56 56 56 56 58 61 62 62 62 61 61 63 63 64 64 65 64 62 61 60 58 56 52 45 41 41 46 51 52 50 51 53 55 57 59 63 67 69 72 73 74 76 77 78
13 11 10 10 12 13 15 16 17 17 18 18 19 18 18 18 19 21 22 23 25 27 29 31 34 36 38 40 41 43 44 45 46 47 48 51 53 54 53 53 53 54 55 56 56 58 58 58 58 61 63 62 61 61 61 63 65 65 65 64 63 62 59 58 56 52 44 37 33 34 42 52 55 52 53 54 56 58 60 64 67 70 73 74 75 77 79 81
13 12 11 11 12 13 15 17 17 18 18 19 19 20 20 21 23 24 25 26 28 30 32 34 36 38 40 41 42 44 45 46 48 49 51 53 53 52 51 52 53 54 55 57 58 59 60 59 58 60 62 61 61 62 62 64 64 64 64 63 62 61 59 55 52 47 40 35 33 33 40 54 58 54 55 57 58 60 62 65 68 70 74 76 77 79 81 83
13 13 12 13 13 14 16 17 18 18 19 20 21 22 22 22 24 25 27 29 31 32 33 35 37 39 41 42 43 45 46 48 50 52 52 52 51 50 51 53 54 55 57 59 60 61 61 60 59 59 60 61 61 63 63 64 63 62 62 61 60 58 55 49 45 44 41 40 40 37 40 54 61 57 58 60 61 64 66 68 71 74 77 80 82 83 85 87
14 14 14 14 13 14 16 17 18 19 19 19 19 20 21 22 24 27 29 31 32 32 34 35 37 39 41 43 45 46 48 50 52 53 52 51 50 51 52 53 54 57 59 61 62 62 61 60 58 58 60 61 62 63 63 62 62 61 60 58 56 53 49 43 40 42 45 47 48 44 44 54 63 62 62 64 65 68 71 73 75 78 81 84 86 88 90 92
15 14 15 15 14 14 16 18 20 21 20 19 19 20 22 24 26 28 30 31 32 33 34 36 39 41 43 45 47 49 50 52 52 52 50 50 52 53 53 54 57 59 61 62 62 62 60 59 58 58 60 61 62 62 61 61 61 59 56 52 50 48 46 44 43 44 47 50 53 51 50 56 65 67 67 68 70 73 75 77 80 82 85 89 91 92 94 95
15 15 15 16 15 15 16 18 21 23 23 22 23 24 26 27 28 29 30 31 33 34 36 39 41 43 46 48 50 51 51 50 50 51 51 52 53 54 55 57 60 61 62 61 61 61 60 59 58 58 59 60 61 61 60 60 59 55 50 47 46 46 47 48 49 49 50 53 56 57 55 59 67 70 70 71 74 77 80 83 85 87 90 92 94 95 95 96
15 15 15 16 16 16 18 20 22 24 25 26 27 28 29 30 30 31 32 33 35 37 39 42 44 45 47 49 49 49 49 48 49 50 51 53 54 55 57 60 61 62 61 60 60 59 59 59 58 57 56 56 58 59 59 58 55 49 45 45 47 49 51 52 53 54 54 56 60 63 62 63 70 74 74 76 79 82 85 88 90 93 94 94 94 95 97 99
16 16 16 16 16 18 20 22 24 24 26 27 29 31 31 32 32 33 34 35 37 39 41 43 44 45 46 47 47 48 48 48 48 50 52 53 55 57 60 61 61 61 60 59 58 58 58 58 57 56 56 55 55 54 51 48 46 44 44 47 49 52 54 56 58 59 59 60 64 68 67 66 73 78 79 81 83 86 88 90 92 94 95 96 96 98 101 104
17 17 17 16 17 19 21 22 23 24 25 27 29 31 32 33 34 35 37 38 40 42 43 45 46 46 47 47 48 48 48 49 50 51 53 55 57 59 60 61 60 59 58 57 57 56 55 55 55 56 57 56 51 46 41 40 41 43 46 49 52 54 57 60 62 63 64 64 66 71 74 72 75 80 82 85 87 89 90 91 93 95 97 99 101 103 105 108
17 18 17 17 19 22 23 23 24 25 27 29 31 33 34 36 37 39 40 41 43 44 45 46 47 47 48 48 48 48 49 50 51 53 55 57 58 59 59 58 58 57 56 56 55 53 51 53 54 56 56 50 44 40 39 40 42 44 48 52 54 56 59 62 65 67 68 68 68 73 78 80 81 84 86 89 90 90 90 92 95 99 101 103 105 107 110 112
18 18 19 20 22 24 25 26 27 28 30 32 33 35 36 37 38 39 41 42 44 45 46 47 47 47 47 46 46 48 49 51 53 55 57 58 58 57 57 57 56 55 54 53 52 51 51 53 52 52 50 44 39 41 43 44 46 48 51 54 57 59 62 65 69 71 72 73 74 76 81 85 87 88 89 91 92 92 94 97 100 104 106 108 110 112 115 117
19 20 21 21 23 25 26 27 28 29 31 32 34 35 36 37 38 39 41 42 43 44 44 44 44 44 45 46 47 49 51 53 55 57 57 57 56 55 55 55 54 53 52 51 51 51 50 49 45 44 45 44 42 44 47 49 51 53 55 58 60 63 65 68 72 75 76 78 80 82 84 87 89 90 90 92 96 98 101 103 106 110 112 113 115 117 119 121
20 21 22 23 24 25 26 28 29 30 31 32 33 34 35 36 37 38 39 40 40 41 41 41 42 43 45 47 48 50 52 54 55 55 55 55 55 54 53 52 51 50 51 51 51 48 43 40 37 38 43 47 47 49 51 52 54 56 59 62 64 66 69 72 76 79 80 82 84 86 87 86 87 89 92 96 101 105 107 109 112 115 117 118 120 121 123 123
20 21 22 23 24 25 26 28 29 30 31 31 32 32 33 34 35 35 36 37 38 39 40 41 43 44 46 48 50 51 52 53 53 53 53 52 52 51 50 50 50 50 50 47 44 39 36 35 36 39 44 49 51 52 54 55 56 59 62 65 68 70 72 76 80 84 85 85 85 86 86 87 89 91 94 98 103 108 112 115 117 119 121 122 124 125 126 126
19 20 21 22 24 25 26 27 28 29 29 30 30 31 31 32 33 34 35 37 38 39 41 43 44 46 48 49 50 50 51 51 51 51 50 49 49 49 49 49 48 46 43 39 35 34 34 36 39 42 46 50 53 54 56 57 59 62 65 68 71 73 76 79 84 88 89 87 86 87 89 91 94 96 98 100 104 109 114 118 122 124 125 126 127 128 129 129
Wind_Direction
218 220 221 221 221 220 220 219 220 221 223 224 226 227 229 230 231 231 233 234 234 235 236 237 238 239 240 241 242 244 246 248 250 253 255 257 260 262 264 266 268 270 271 273 275 276 277 279 280 282 283 285 286 287 288 289 290 290 291 292 293 294 295 296 298 299 300 300 300 301 300 299 297 295 294 293 292 292 291 291 290 289 289 288 288 288 288 288
222 223 224 225 225 224 223 222 222 222 223 225 226 228 229 231 232 234 235 236 237 238 239 241 242 244 245 246 247 249 250 252 254 256 258 260 263 265 267 269 271 272 274 276 277 279 280 281 283 284 285 286 287 288 289 289 290 291 292 293 294 295 297 298 299 300 301 301 301 300 299 297 296 294 293 293 293 292 291 290 289 289 289 289 289 289 290 290
223 225 226 226 227 227 227 225 224 224 224 225 227 228 230 231 233 234 236 237 238 240 242 244 245 247 248 249 251 252 253 255 257 259 261 263 265 267 269 271 273 275 277 278 279 281 282 283 284 285 286 287 288 288 289 290 291 292 293 295 296 297 299 299 300 301 301 301 301 300 298 296 295 294 293 293 292 291 290 289 289 289 290 290 291 291 291 291
225 227 228 229 229 230 230 229 228 226 226 226 227 228 230 232 233 234 236 236 238 241 242 244 247 248 250 251 252 254 255 257 259 261 263 265 267 269 271 273 275 277 278 280 281 282 283 284 284 285 286 286 287 288 289 291 292 294 295 297 298 298 299 299 300 301 301 300 300 298 296 295 294 294 294 293 292 291 290 290 290 290 291 292 292 292 291 291
228 231 232 232 233 232 232 232 231 230 228 228 228 228 230 231 233 234 236 236 238 241 243 245 247 249 250 252 254 255 257 259 261 262 264 266 269 271 273 275 277 278 279 280 281 282 282 283 283 284 285 286 287 289 291 292 294 296 296 297 298 298 299 299 300 301 300 300 298 297 295 295 294 294 294 293 292 291 291 291 291 292 292 293 292 292 291 291
233 234 235 235 235 234 234 234 233 232 231 230 229 229 230 231 233 235 236 237 239 241 243 245 248 250 251 252 254 257 259 260 262 264 266 268 270 272 274 276 277 278 279 279 280 281 281 282 283 284 286 287 289 291 293 294 295 296 296 297 297 298 299 300 301 301 300 299 297 296 295 294 294 294 293 293 293 292 292 292 292 293 293 293 293 292 293 293
239 241 241 240 239 237 236 235 235 234 232 231 230 230 230 231 233 235 236 237 239 241 243 245 248 250 252 253 255 257 259 261 263 265 267 269 271 273 275 276 277 277 278 279 280 281 282 284 285 286 288 290 291 293 294 295 295 295 296 297 298 299 300 301 301 300 299 298 297 296 295 294 294 294 293 293 293 293 293 293 293 294 294 294 293 293 294 295
248 252 250 248 245 242 239 237 236 235 233 231 230 230 231 231 232 234 236 237 239 241 243 245 248 251 253 255 256 258 260 262 264 266 268 270 272 273 274 275 276 278 279 280 281 283 284 286 287 288 290 291 292 293 294 295 295 296 297 298 299 300 301 301 301 300 299 299 298 296 295 294 294 294 294 294 293 293 292 293 294 294 295 294 294 295 295 296
261 262 256 249 246 247 244 240 237 235 233 231 229 229 230 230 232 233 235 237 239 241 243 246 249 252 254 255 257 259 261 263 265 267 269 270 271 273 274 275 277 278 280 282 283 285 286 287 289 290 291 292 293 293 294 295 296 297 298 299 300 301 302 301 301 300 299 299 298 296 295 294 295 295 295 294 293 293 293 293 294 295 295 295 295 296 296 297
274 270 258 247 248 251 249 242 237 233 230 228 226 226 228 229 231 233 234 236 238 241 244 246 249 251 253 255 257 259 261 263 265 266 268 270 271 273 275 276 277 279 280 282 284 285 287 289 290 291 292 292 293 294 294 295 297 298 299 300 301 302 302 302 301 300 300 299 297 296 295 294 295 295 294 294 294 294 294 294 295 296 296 296 296 297 298 299
287 283 261 247 253 256 251 242 232 226 223 222 221 222 224 227 229 231 233 234 237 239 242 245 247 249 252 254 257 259 260 262 264 266 268 270 272 273 275 277 278 280 281 283 285 286 288 289 290 291 292 293 293 294 296 297 298 299 301 302 302 303 303 302 301 300 300 299 298 297 295 294 295 295 295 295 295 295 295 296 297 297 297 297 298 298 299 300
296 299 268 247 259 261 250 237 221 213 213 213 214 218 222 225 227 229 230 232 234 236 239 242 245 248 251 254 256 258 260 262 264 267 269 271 273 275 276 278 280 281 283 284 286 287 288 290 291 292 292 293 294 296 297 298 299 301 302 303 303 303 303 302 301 300 300 299 298 298 297 296 297 297 298 298 298 298 298 298 298 298 298 298 299 300 300 301
302 315 296 257 265 265 243 222 204 198 203 206 209 215 219 222 224 226 228 231 233 235 238 241 244 248 251 254 256 259 261 263 266 269 271 272 274 276 278 280 282 283 284 286 287 288 289 290 291 292 293 295 296 297 298 299 301 302 303 304 303 303 303 302 301 301 300 299 298 298 298 298 299 301 301 300 299 298 298 298 298 298 298 299 300 300 301 301
306 324 327 301 278 277 248 179 189 188 194 201 207 213 218 221 224 226 229 231 234 236 239 242 245 248 251 254 256 260 262 265 268 270 272 274 276 278 280 282 283 285 286 287 288 289 290 291 292 293 295 297 298 299 300 301 302 303 304 304 303 303 303 302 301 300 299 299 298 300 300 298 299 300 300 299 298 298 297 298 299 299 299 300 301 301 301 302
304 317 328 326 311 279 198 158 183 189 193 200 207 213 218 221 224 226 229 232 235 237 240 244 247 249 252 255 258 261 263 266 269 272 274 276 278 279 281 283 285 286 287 288 288 290 291 293 295 297 298 298 299 300 301 302 303 304 304 304 304 303 303 302 301 300 300 300 300 301 300 298 298 299 299 298 298 298 298 298 299 300 301 301 301 302 302 303
300 306 314 320 318 292 191 175 185 196 199 201 208 215 219 222 223 224 223 225 227 232 238 241 244 248 252 256 260 263 266 269 272 274 276 277 278 281 283 285 287 287 287 288 290 292 294 297 298 299 299 299 300 300 302 303 304 304 304 304 303 303 302 302 301 301 301 301 300 301 300 297 298 299 299 298 298 298 298 299 300 301 302 302 302 302 303 304
295 297 299 303 305 299 252 203 199 205 205 203 208 214 217 218 220 221 220 219 220 226 234 239 243 248 253 258 262 266 269 272 274 274 275 278 282 285 286 287 287 287 288 291 294 297 299 300 300 300 300 300 301 302 303 304 304 305 305 304 304 302 302 302 301 301 302 301 300 300 300 298 298 299 299 299 299 299 300 301 302 302 302 302 303 303 304 305
288 290 289 287 288 289 282 257 226 214 213 216 217 219 219 219 219 220 222 225 227 232 238 243 247 251 255 258 262 266 269 271 272 273 277 283 287 288 287 286 287 289 292 295 299 301 303 302 302 301 302 302 302 303 304 305 305 306 305 305 304 303 302 302 301 301 301 301 300 300 300 298 298 299 299 300 300 301 301 302 302 302 303 303 304 305 305 305
280 277 277 278 276 275 275 274 264 243 229 228 230 229 228 225 225 225 227 230 234 237 241 246 249 253 256 260 263 265 265 266 270 277 284 288 287 285 285 286 288 292 295 298 301 303 304 303 302 303 303 304 304 305 306 306 307 306 305 304 303 302 301 301 301 301 301 301 300 300 300 298 298 299 300 301 301 301 302 302 302 302 303 304 305 306 306 305
279 273 268 269 270 269 267 267 268 265 259 252 247 241 236 232 231 231 233 235 237 240 243 247 251 255 259 262 263 263 264 267 275 284 288 287 284 282 284 287 291 294 297 300 303 305 304 303 303 304 305 306 306 307 307 307 307 307 305 304 303 302 301 301 301 300 300 300 300 301 300 299 299 299 300 301 301 302 301 301 302 302 304 306 307 306 305 305
275 273 267 262 263 266 265 262 261 262 262 259 254 249 242 236 232 232 235 237 241 244 248 251 255 257 259 261 264 265 269 277 286 291 289 284 282 283 287 290 294 297 300 303 307 307 305 304 305 306 307 307 308 308 308 308 307 306 305 304 303 302 301 301 301 300 301 301 301 301 301 300 299 299 300 300 301 301 301 302 303 304 306 307 306 305 304 305
273 269 266 261 259 261 263 262 260 257 256 255 253 251 248 241 235 234 237 240 246 251 255 261 263 260 260 265 271 275 280 288 295 293 286 282 282 285 289 292 297 300 303 306 308 308 307 306 306 307 308 308 309 308 308 307 307 306 305 304 303 302 301 301 301 301 301 301 300 301 301 299 298 299 300 300 301 301 302 303 304 305 306 307 306 305 304 305
273 268 264 262 260 260 261 262 259 255 253 253 253 253 253 252 249 248 248 248 251 253 256 263 265 266 271 277 282 285 288 293 294 287 280 281 283 286 290 295 299 301 303 305 307 307 307 306 307 308 309 309 309 309 308 308 307 306 305 304 303 302 302 301 301 301 301 301 300 300 301 300 299 299 301 302 302 303 303 303 304 306 307 306 305 304 304 306
275 270 266 263 262 261 260 259 257 253 252 253 253 255 256 256 257 256 254 251 252 254 254 254 259 266 274 278 281 283 286 290 287 279 276 281 285 288 292 296 299 301 303 305 305 307 307 307 308 308 309 310 310 310 309 308 307 306 305 304 303 303 302 302 301 301 302 302 302 302 303 302 299 300 302 303 303 303 303 304 305 306 307 306 304 303 304 306
278 273 269 265 263 261 259 257 253 250 250 251 252 254 255 256 256 255 253 252 253 257 258 258 263 268 271 273 276 280 284 285 281 275 277 282 286 290 294 297 299 301 303 304 305 306 307 307 308 309 310 311 311 311 310 309 308 307 306 305 304 304 304 303 303 303 303 303 303 303 304 303 300 300 302 303 303 302 303 305 306 307 307 305 303 303 306 307
281 277 272 268 264 261 259 257 254 250 249 249 249 251 253 253 253 253 253 252 254 259 263 266 269 271 272 273 274 276 279 278 274 275 279 283 288 292 295 297 300 302 302 304 305 306 307 307 308 309 311 311 311 311 310 310 308 307 306 306 305 305 305 305 305 305 305 304 304 305 305 304 300 300 302 303 302 303 304 306 307 308 306 303 303 305 307 308
281 277 273 269 265 262 260 258 254 251 249 248 248 249 251 252 251 252 252 253 256 260 264 268 268 267 267 269 271 273 274 272 271 275 280 285 290 293 296 298 301 301 302 303 305 305 306 307 308 309 311 311 311 311 310 309 308 307 306 306 306 306 306 306 306 306 306 306 306 306 306 305 302 300 301 302 302 303 305 307 308 308 304 303 305 307 308 310
280 276 273 269 266 263 260 257 253 251 250 249 249 249 250 251 251 250 251 252 256 259 262 264 263 262 262 264 266 268 269 269 273 277 282 286 290 293 296 298 300 300 300 303 304 305 306 306 307 309 310 311 312 311 310 309 308 307 306 306 307 307 307 307 307 307 307 307 307 307 307 306 303 301 301 301 302 305 307 310 309 306 304 305 308 309 310 312
278 275 272 269 266 263 259 257 254 251 251 250 249 248 247 248 248 248 248 251 254 257 259 259 258 258 259 261 263 266 268 272 276 279 284 288 290 293 296 298 299 299 300 302 304 304 305 305 306 307 309 311 312 311 310 309 308 307 307 307 307 307 307 308 308 308 308 308 308 308 307 306 303 301 301 301 303 307 310 311 308 305 306 308 310 312 313 312
277 275 273 269 265 262 259 257 254 251 251 249 247 246 245 245 245 245 246 247 249 253 255 253 254 255 257 262 268 271 272 275 278 282 286 289 291 293 295 297 297 298 300 302 304 304 305 305 306 307 308 310 311 310 309 309 308 307 307 307 307 307 308 308 309 308 309 309 309 308 307 305 302 300 299 300 306 313 314 311 307 308 310 311 312 314 312 311
277 275 272 269 264 260 257 255 252 250 248 246 244 243 243 243 243 243 244 245 246 250 252 251 254 258 265 270 271 271 272 276 280 284 286 289 291 294 295 296 296 298 301 302 304 305 305 306 307 308 309 310 310 309 309 309 308 308 307 307 307 307 308 309 309 308 309 309 309 308 307 304 301 299 298 303 313 319 315 309 309 312 312 312 312 312 310 309
279 273 269 266 261 257 254 251 248 245 243 242 242 241 241 241 243 245 248 250 253 256 257 257 258 261 266 268 266 268 273 279 282 284 286 290 292 293 293 294 296 299 301 302 304 305 306 307 308 308 309 309 309 309 309 309 308 308 308 308 308 307 308 309 309 309 310 310 310 308 306 303 300 298 300 309 319 320 312 309 311 311 310 310 310 309 309 308
281 273 266 262 257 253 249 246 243 241 240 240 241 241 241 242 244 245 247 249 252 255 258 261 261 261 263 265 268 273 278 282 284 286 288 290 291 291 292 295 298 300 301 301 302 304 305 307 308 309 309 309 309 308 308 308 308 308 307 308 308 308 308 309 310 310 311 311 310 307 304 302 300 299 304 315 322 317 311 311 311 310 309 309 308 308 308 308
283 274 266 259 254 250 246 242 240 239 239 240 241 242 242 243 243 243 244 243 247 253 259 265 270 272 272 273 276 279 282 285 288 288 288 288 289 291 294 297 299 301 301 301 301 302 304 307 308 309 309 308 308 308 307 307 307 307 307 308 308 309 310 311 312 312 312 312 311 307 304 302 300 301 309 320 320 314 313 312 310 310 309 309 308 308 308 308
284 274 264 256 252 247 242 239 237 237 237 238 239 240 241 241 239 238 239 240 246 253 260 267 272 273 273 274 276 277 280 285 286 286 285 286 289 292 295 298 300 301 301 301 301 302 304 306 308 309 308 308 307 307 307 306 306 306 307 307 308 309 310 312 313 314 313 314 312 308 305 302 302 307 315 321 318 314 314 312 311 311 310 310 310 311 311 311
285 275 264 255 247 241 238 234 231 232 233 232 234 236 237 236 235 236 241 245 251 257 262 265 266 267 268 271 274 278 281 283 283 284 285 287 290 293 296 299 300 300 300 301 302 303 305 307 308 308 308 307 307 307 306 305 305 306 307 308 309 310 311 312 315 315 314 315 314 311 307 304 305 311 317 318 316 315 315 314 313 314 314 314 314 313 313 312
285 277 267 255 245 238 234 230 227 227 226 226 228 230 230 229 231 238 246 252 257 261 262 262 263 265 269 273 276 278 279 280 281 283 286 289 292 295 297 299 299 299 300 302 304 305 307 308 309 308 307 307 307 306 306 305 306 307 308 309 309 310 311 313 316 315 314 316 318 314 310 306 307 313 316 315 315 315 316 315 314 315 314 314 314 313 312 312
282 277 268 256 248 240 233 228 226 223 221 220 219 219 221 227 237 245 250 254 256 258 259 262 264 267 271 274 276 277 278 279 281 283 287 290 293 296 298 298 298 300 302 304 306 307 308 309 309 308 307 306 306 306 305 305 307 308 309 309 310 312 314 315 315 313 314 319 319 317 313 308 307 312 313 312 313 314 314 313 312 312 311 310 310 310 310 309
276 271 262 252 247 243 235 229 225 219 214 213 214 216 222 230 239 246 251 254 256 258 260 263 266 269 271 273 275 277 278 280 282 286 289 292 295 297 297 298 299 301 303 306 308 308 308 309 309 307 305 305 305 305 305 306 307 308 308 309 312 314 315 315 314 313 316 318 316 316 314 307 306 310 311 311 312 312 311 310 309 309 308 308 308 307 307 307
270 264 256 249 243 243 238 229 222 216 213 215 219 224 230 235 240 245 250 254 257 260 263 264 267 269 271 273 275 277 280 283 286 290 292 294 296 297 298 299 301 303 306 308 308 308 308 308 308 306 305 305 305 305 305 307 307 308 309 312 314 315 314 313 314 314 315 315 313 315 314 307 306 310 310 310 311 311 309 309 309 308 307 307 307 307 306 306
266 260 255 248 239 237 233 224 218 217 220 226 230 233 237 241 246 250 252 256 259 262 264 265 267 270 272 274 276 279 282 287 290 292 293 295 297 298 299 300 303 306 307 308 307 307 307 307 307 306 305 305 305 305 306 307 307 309 312 315 315 313 312 312 313 313 314 314 313 315 315 310 308 310 311 311 311 310 309 309 308 308 307 306 307 307 307 306
265 257 252 246 236 232 228 222 219 222 228 234 238 240 243 246 250 255 258 261 265 267 268 269 271 272 274 276 278 281 285 288 290 291 293 295 298 299 300 303 305 307 307 307 307 307 306 306 306 306 306 306 306 306 306 307 309 313 315 316 314 312 312 312 312 312 313 313 312 313 314 311 310 310 310 311 311 310 309 309 308 308 307 307 307 307 307 307
263 255 249 244 234 230 230 228 226 228 233 239 244 249 252 254 257 261 265 267 270 271 271 272 273 274 276 278 281 283 286 288 290 292 294 296 298 300 302 305 306 306 306 306 306 306 306 306 307 307 307 306 306 306 307 310 313 316 317 316 314 312 312 312 312 313 313 313 312 313 314 312 310 309 310 311 311 310 310 309 308 308 307 307 307 307 307 307
262 255 248 242 235 231 231 233 233 234 237 241 247 252 256 260 263 266 269 271 272 273 273 274 275 277 280 282 284 286 288 289 291 293 295 298 300 302 304 305 305 305 305 305 305 306 307 307 307 307 305 304 305 307 310 313 315 317 317 315 313 312 312 313 313 313 314 314 314 313 314 314 311 309 311 312 311 310 310 309 309 308 307 307 307 307 307 306
259 254 246 240 235 233 234 237 239 242 243 246 251 255 259 263 265 268 270 272 274 275 276 277 279 282 284 286 287 289 291 293 295 296 298 299 302 304 304 304 304 304 305 305 306 307 308 308 307 306 304 305 308 311 313 314 315 316 315 314 312 312 313 314 314 314 314 315 314 313 313 313 311 310 312 312 311 310 309 308 308 307 307 307 307 307 306 306
257 253 249 242 238 239 241 245 248 248 249 251 255 258 261 263 264 266 268 271 273 275 277 280 283 286 288 290 291 292 294 296 298 299 300 302 303 304 303 303 304 304 306 307 308 309 309 307 306 305 305 309 313 315 315 313 312 313 313 312 312 312 314 314 314 314 313 314 314 312 312 313 311 311 311 310 309 309 308 308 308 307 307 307 307 306 306 306
257 253 250 245 243 246 249 252 252 252 252 253 255 257 260 261 263 266 268 270 273 275 279 282 285 288 290 291 293 295 297 298 299 301 302 303 303 303 303 304 305 306 308 309 309 309 308 306 306 307 308 313 317 315 314 312 311 312 312 311 311 313 313 313 312 312 313 313 314 313 313 313 311 310 310 309 309 309 309 309 308 307 306 306 306 307 307 308
259 255 251 247 246 250 254 257 260 262 261 260 260 261 263 265 268 270 272 274 277 279 282 285 287 290 291 293 295 297 299 300 301 302 303 303 303 303 305 306 307 309 309 309 308 308 307 307 309 310 311 315 317 315 314 314 313 314 313 311 312 313 313 313 313 313 313 314 314 314 313 312 311 311 311 311 311 310 310 309 308 307 307 307 308 309 309 309
261 258 256 255 255 256 261 265 269 272 272 269 268 268 270 273 275 277 279 281 283 284 287 288 290 292 294 296 298 300 301 302 302 302 303 303 304 306 307 308 309 309 309 308 308 308 310 311 313 315 315 316 317 316 315 316 315 315 314 313 314 314 314 314 313 313 314 315 314 314 313 312 312 313 313 312 311 310 310 309 309 308 309 309 310 310 310 310
263 262 262 262 263 265 267 270 273 276 276 276 275 276 278 279 281 283 284 286 287 288 290 291 293 295 298 299 301 301 301 302 302 302 303 305 306 307 308 308 308 308 308 309 309 312 314 316 317 318 317 316 317 317 317 317 317 316 315 315 315 315 315 315 314 314 314 315 314 313 313 313 313 313 313 312 311 310 310 310 310 310 310 310 310 310 310 310
266 266 267 267 269 271 273 274 276 277 278 280 281 282 283 285 286 287 288 289 290 292 294 296 298 299 300 301 301 301 301 302 302 303 305 306 307 307 307 307 308 309 310 311 313 315 318 318 318 318 317 316 316 317 317 317 317 316 315 315 315 315 316 315 315 314 314 314 314 313 313 313 312 311 311 311 311 311 311 311 310 310 310 310 310 310 310 309
269 269 270 271 272 274 275 277 278 280 281 284 286 287 288 289 290 291 292 293 294 296 298 300 300 301 301 301 301 302 303 303 304 305 306 306 306 306 307 308 310 311 313 314 316 317 317 317 317 317 316 315 315 316 315 315 316 315 314 315 315 316 316 316 315 314 314 314 314 313 312 312 311 311 311 311 311 311 311 310 310 310 311 311 310 310 309 309
Height
10744 10745 10747 10748 10749 10751 10752 10754 10755 10757 10758 10759 10761 10762 10764 10766 10768 10770 10772 10775 10777 10779 10780 10781 10782 10783 10784 10785 10786 10787 10788 10789 10789 10789 10789 10788 10788 10788 10788 10787 10787 10786 10785 10784 10783 10782 10781 10780 10779 10778 10776 10774 10773 10771 10769 10767 10765 10763 10761 10759 10757 10755 10753 10750 10747 10744 10741 10739 10736 10733 10731 10728 10725 10722 10720 10717 10714 10711 10709 10707 10704 10701 10699 10696 10693 10690 10686 10683
10742 10743 10744 10745 10746 10748 10749 10751 10752 10754 10755 10757 10758 10760 10761 10763 10765 10767 10769 10772 10774 10776 10776 10777 10779 10780 10781 10783 10784 10785 10785 10785 10785 10786 10786 10785 10785 10785 10784 10784 10783 10782 10781 10780 10779 10778 10777 10776 10774 10773 10771 10770 10768 10766 10765 10763 10761 10759 10757 10754 10752 10750 10747 10744 10742 10739 10736 10734 10731 10728 10725 10723 10720 10717 10715 10712 10710 10706 10703 10701 10699 10696 10693 10690 10687 10684 10680 10677
10739 10740 10741 10742 10743 10744 10746 10747 10749 10751 10752 10754 10755 10757 10759 10760 10762 10764 10766 10769 10771 10772 10773 10775 10776 10777 10778 10780 10781 10782 10782 10782 10782 10783 10782 10782 10782 10781 10781 10780 10779 10778 10777 10776 10774 10773 10772 10771 10770 10768 10767 10765 10763 10762 10760 10758 10756 10754 10751 10749 10747 10744 10742 10739 10737 10734 10731 10729 10726 10723 10720 10718 10715 10712 10710 10708 10705 10701 10698 10696 10693 10690 10688 10685 10681 10678 10674 10671
10737 10738 10739 10740 10741 10742 10743 10744 10746 10747 10749 10750 10752 10754 10756 10758 10760 10761 10763 10766 10768 10769 10771 10772 10774 10775 10776 10777 10778 10778 10779 10779 10779 10779 10779 10779 10778 10777 10777 10776 10776 10774 10773 10772 10771 10769 10768 10767 10766 10764 10763 10761 10759 10758 10756 10753 10751 10748 10746 10744 10741 10739 10737 10735 10732 10729 10727 10724 10721 10718 10716 10713 10710 10707 10705 10703 10701 10696 10692 10691 10688 10685 10682 10679 10675 10671 10668 10665
10735 10736 10737 10738 10738 10739 10740 10741 10742 10743 10745 10747 10749 10751 10753 10755 10757 10758 10761 10764 10766 10767 10769 10771 10771 10772 10773 10774 10775 10775 10776 10776 10776 10776 10776 10775 10775 10774 10774 10773 10772 10771 10769 10768 10767 10766 10765 10764 10762 10761 10759 10757 10755 10753 10751 10748 10746 10744 10741 10739 10737 10735 10733 10730 10728 10725 10722 10719 10716 10713 10711 10708 10705 10703 10700 10698 10696 10691 10686 10685 10682 10679 10676 10673 10669 10665 10662 10659
10733 10734 10735 10735 10736 10736 10736 10737 10738 10739 10741 10743 10746 10748 10750 10752 10754 10756 10758 10761 10763 10765 10767 10768 10769 10769 10770 10771 10772 10772 10773 10773 10773 10773 10772 10772 10772 10771 10770 10769 10768 10767 10766 10765 10764 10763 10761 10760 10758 10756 10754 10752 10750 10748 10746 10743 10741 10739 10737 10735 10733 10730 10728 10725 10723 10720 10717 10714 10711 10708 10706 10703 10701 10699 10695 10693 10691 10685 10680 10678 10676 10673 10670 10667 10662 10659 10656 10653
10732 10732 10732 10732 10732 10733 10733 10733 10733 10735 10737 10739 10742 10744 10747 10749 10751 10753 10756 10758 10761 10762 10764 10765 10765 10766 10767 10768 10769 10769 10769 10769 10769 10769 10769 10769 10768 10767 10766 10765 10764 10763 10762 10761 10760 10758 10757 10755 10753 10752 10749 10747 10745 10743 10741 10739 10737 10735 10733 10730 10728 10726 10723 10720 10718 10715 10712 10709 10705 10703 10700 10697 10696 10695 10691 10688 10685 10680 10675 10671 10670 10668 10664 10660 10656 10652 10650 10646
10730 10729 10729 10729 10729 10729 10729 10729 10729 10731 10732 10735 10738 10740 10743 10746 10748 10750 10753 10755 10758 10759 10761 10762 10762 10763 10764 10765 10766 10766 10766 10766 10766 10766 10766 10765 10765 10764 10763 10762 10760 10759 10758 10756 10755 10754 10752 10750 10748 10747 10745 10743 10741 10739 10737 10735 10733 10731 10728 10726 10723 10721 10718 10715 10712 10710 10706 10704 10700 10697 10694 10691 10691 10690 10686 10682 10679 10674 10670 10666 10664 10662 10658 10654 10649 10646 10643 10639
10728 10727 10727 10726 10726 10726 10726 10725 10726 10727 10729 10731 10734 10737 10740 10742 10744 10747 10750 10753 10755 10756 10758 10759 10760 10761 10761 10762 10762 10763 10763 10763 10763 10763 10762 10762 10761 10760 10759 10758 10757 10755 10754 10752 10750 10749 10747 10746 10744 10742 10741 10739 10737 10735 10733 10731 10728 10726 10724 10721 10719 10716 10713 10710 10707 10704 10701 10699 10695 10691 10688 10686 10686 10684 10680 10677 10673 10667 10663 10661 10659 10656 10652 10647 10643 10640 10637 10633
10726 10725 10725 10724 10724 10724 10723 10722 10722 10723 10726 10728 10732 10734 10737 10739 10741 10744 10748 10750 10752 10754 10755 10757 10757 10758 10758 10759 10759 10760 10760 10760 10760 10759 10759 10758 10757 10756 10755 10754 10753 10751 10750 10748 10747 10745 10743 10742 10740 10738 10737 10735 10733 10730 10728 10726 10724 10721 10719 10716 10714 10711 10708 10705 10702 10699 10696 10693 10690 10685 10681 10680 10680 10679 10675 10671 10666 10661 10657 10655 10653 10650 10645 10640 10637 10633 10630 10626
10724 10724 10723 10723 10723 10722 10720 10719 10719 10721 10723 10726 10730 10732 10734 10736 10739 10742 10745 10747 10749 10751 10752 10753 10754 10754 10755 10756 10757 10757 10756 10756 10756 10756 10755 10755 10754 10752 10751 10750 10748 10747 10746 10744 10743 10741 10740 10738 10736 10734 10733 10730 10728 10726 10724 10722 10719 10717 10714 10711 10708 10706 10703 10700 10697 10694 10691 10688 10685 10681 10673 10672 10675 10673 10670 10665 10659 10654 10650 10648 10647 10643 10638 10634 10630 10627 10623 10619
10723 10723 10722 10721 10721 10720 10719 10718 10718 10719 10722 10725 10728 10730 10732 10735 10737 10740 10742 10744 10746 10748 10749 10750 10751 10751 10752 10753 10754 10754 10753 10753 10753 10752 10752 10751 10750 10749 10747 10746 10744 10743 10742 10740 10739 10738 10736 10734 10732 10730 10728 10726 10724 10722 10719 10717 10715 10712 10709 10706 10703 10701 10699 10695 10692 10688 10686 10683 10679 10677 10667 10662 10667 10666 10663 10659 10652 10647 10643 10641 10640 10636 10632 10627 10624 10620 10616 10612
10722 10722 10721 10720 10720 10719 10718 10717 10717 10719 10721 10724 10726 10728 10731 10733 10735 10738 10740 10742 10744 10745 10746 10747 10748 10749 10750 10750 10750 10750 10750 10750 10749 10749 10748 10747 10746 10745 10744 10742 10741 10739 10738 10737 10735 10734 10732 10730 10728 10726 10724 10722 10720 10717 10715 10712 10709 10707 10704 10701 10698 10695 10694 10690 10687 10684 10681 10677 10674 10673 10664 10654 10657 10659 10656 10652 10646 10641 10637 10635 10633 10629 10625 10621 10617 10613 10608 10604
10721 10720 10720 10719 10719 10718 10718 10718 10718 10719 10721 10723 10726 10728 10730 10731 10734 10736 10738 10740 10742 10743 10744 10745 10746 10747 10747 10747 10747 10747 10747 10746 10746 10745 10744 10743 10742 10741 10740 10739 10737 10736 10734 10733 10731 10730 10728 10726 10724 10722 10720 10717 10715 10712 10710 10707 10704 10701 10698 10696 10693 10690 10688 10685 10682 10679 10676 10672 10668 10667 10661 10650 10648 10652 10651 10646 10642 10636 10631 10628 10627 10623 10619 10615 10610 10605 10600 10597
10720 10720 10719 10718 10718 10718 10718 10719 10719 10720 10721 10723 10725 10727 10729 10731 10733 10735 10737 10738 10740 10741 10742 10742 10743 10744 10744 10744 10744 10744 10743 10743 10742 10742 10741 10740 10739 10738 10737 10735 10734 10732 10731 10729 10728 10726 10724 10722 10720 10718 10715 10712 10710 10707 10705 10702 10699 10697 10694 10691 10688 10685 10683 10680 10677 10674 10671 10667 10662 10661 10657 10646 10642 10645 10644 10641 10636 10631 10625 10622 10620 10616 10612 10608 10603 10598 10593 10589
10720 10719 10719 10718 10718 10718 10719 10720 10720 10721 10722 10723 10725 10727 10728 10730 10732 10733 10735 10737 10738 10739 10739 10740 10740 10740 10741 10741 10741 10740 10740 10740 10739 10738 10738 10737 10736 10735 10734 10732 10731 10729 10728 10726 10724 10722 10720 10718 10716 10713 10711 10708 10706 10703 10700 10698 10695 10692 10689 10686 10683 10680 10678 10676 10672 10669 10666 10662 10657 10655 10651 10642 10637 10638 10636 10634 10630 10626 10620 10615 10612 10609 10605 10600 10595 10591 10586 10581
10719 10719 10718 10718 10718 10718 10719 10720 10721 10722 10722 10723 10725 10726 10727 10729 10730 10731 10733 10734 10735 10736 10736 10737 10737 10737 10738 10738 10737 10737 10737 10736 10736 10735 10735 10734 10733 10731 10730 10729 10727 10726 10724 10722 10720 10719 10716 10714 10711 10709 10706 10704 10702 10699 10696 10694 10691 10688 10685 10682 10679 10676 10674 10671 10667 10664 10660 10656 10652 10649 10645 10636 10631 10631 10629 10626 10623 10619 10614 10608 10604 10601 10596 10592 10587 10583 10578 10573
10718 10718 10718 10718 10718 10718 10718 10719 10720 10722 10723 10723 10724 10725 10726 10727 10728 10729 10730 10731 10732 10733 10734 10734 10734 10735 10735 10735 10734 10734 10734 10734 10733 10732 10731 10730 10729 10728 10727 10725 10724 10722 10720 10719 10717 10714 10712 10710 10707 10704 10702 10700 10697 10695 10692 10689 10686 10683 10680 10677 10674 10670 10668 10666 10663 10659 10656 10651 10645 10643 10639 10631 10625 10623 10621 10619 10616 10612 10607 10601 10597 10592 10588 10584 10579 10575 10570 10564
10717 10717 10718 10718 10718 10718 10718 10719 10720 10721 10722 10723 10724 10725 10725 10726 10726 10727 10728 10728 10730 10731 10731 10732 10732 10732 10732 10731 10731 10731 10731 10731 10730 10729 10728 10727 10726 10725 10723 10722 10721 10719 10717 10715 10713 10711 10708 10706 10703 10701 10698 10696 10693 10690 10688 10685 10682 10679 10675 10672 10670 10666 10662 10660 10658 10654 10652 10647 10640 10636 10632 10625 10620 10616 10612 10611 10608 10604 10599 10595 10590 10585 10581 10576 10572 10567 10561 10555
10716 10716 10716 10717 10717 10717 10717 10718 10719 10719 10720 10721 10722 10723 10723 10724 10724 10725 10725 10726 10727 10728 10728 10729 10729 10729 10729 10728 10728 10728 10728 10728 10727 10726 10725 10724 10723 10722 10720 10719 10717 10716 10714 10712 10710 10707 10705 10702 10699 10697 10694 10691 10689 10685 10683 10680 10677 10674 10670 10667 10665 10662 10658 10654 10652 10648 10646 10643 10636 10631 10624 10616 10613 10610 10606 10604 10600 10596 10591 10587 10583 10578 10574 10570 10565 10559 10552 10547
10714 10714 10715 10715 10715 10716 10716 10717 10717 10718 10718 10719 10719 10720 10721 10722 10722 10723 10723 10724 10725 10725 10725 10725 10726 10726 10726 10726 10726 10726 10725 10725 10724 10722 10721 10720 10719 10718 10717 10716 10714 10712 10710 10708 10705 10703 10700 10698 10695 10692 10690 10687 10684 10681 10678 10675 10672 10669 10666 10663 10660 10657 10654 10649 10646 10643 10640 10637 10632 10626 10618 10607 10603 10603 10601 10597 10594 10589 10584 10579 10575 10571 10567 10563 10557 10550 10543 10539
10712 10712 10712 10713 10714 10714 10714 10715 10716 10716 10716 10716 10717 10718 10719 10720 10720 10721 10721 10721 10722 10722 10723 10723 10723 10723 10723 10723 10723 10722 10722 10721 10720 10719 10718 10717 10716 10715 10713 10712 10710 10708 10706 10704 10701 10699 10696 10694 10691 10688 10685 10682 10679 10677 10673 10670 10667 10664 10661 10658 10654 10652 10649 10645 10640 10636 10633 10631 10627 10621 10614 10601 10592 10594 10594 10591 10587 10581 10576 10572 10568 10564 10561 10556 10549 10542 10535 10531
10709 10710 10710 10710 10711 10712 10712 10713 10713 10713 10713 10713 10714 10715 10716 10717 10717 10718 10718 10719 10719 10720 10720 10721 10721 10720 10720 10720 10720 10719 10719 10718 10718 10716 10715 10714 10713 10711 10710 10708 10706 10704 10702 10700 10697 10695 10692 10689 10687 10684 10681 10678 10675 10672 10668 10665 10662 10659 10656 10653 10649 10646 10643 10640 10636 10631 10626 10623 10621 10617 10611 10596 10582 10583 10586 10582 10579 10574 10568 10565 10561 10558 10554 10548 10541 10533 10528 10524
10707 10707 10707 10708 10708 10709 10710 10710 10710 10711 10710 10711 10711 10712 10713 10714 10714 10715 10715 10716 10716 10717 10717 10718 10718 10718 10718 10717 10717 10716 10716 10716 10715 10713 10712 10711 10709 10708 10706 10704 10703 10700 10698 10696 10693 10691 10688 10685 10682 10679 10676 10673 10670 10667 10663 10660 10656 10653 10650 10647 10644 10640 10637 10634 10631 10627 10621 10615 10612 10609 10607 10594 10573 10572 10579 10574 10571 10567 10561 10558 10555 10551 10546 10539 10532 10525 10521 10518
10704 10704 10704 10705 10705 10706 10706 10707 10707 10707 10707 10708 10709 10709 10710 10711 10712 10712 10713 10713 10713 10714 10714 10715 10715 10715 10715 10715 10714 10714 10713 10712 10711 10710 10709 10707 10706 10704 10703 10701 10699 10697 10694 10692 10689 10686 10684 10680 10677 10674 10670 10667 10664 10661 10658 10655 10651 10647 10644 10641 10638 10635 10631 10627 10624 10621 10616 10610 10605 10600 10601 10593 10569 10562 10570 10567 10563 10559 10554 10552 10548 10544 10539 10530 10523 10518 10514 10511
10701 10700 10701 10702 10702 10702 10703 10703 10704 10704 10704 10705 10706 10706 10707 10708 10709 10709 10709 10710 10710 10711 10711 10712 10712 10712 10712 10712 10712 10711 10710 10709 10708 10706 10705 10704 10702 10701 10699 10697 10695 10693 10690 10688 10684 10681 10679 10675 10672 10668 10665 10662 10658 10655 10652 10649 10646 10641 10638 10635 10632 10629 10625 10622 10617 10613 10610 10605 10600 10593 10590 10587 10567 10555 10561 10558 10553 10552 10548 10545 10542 10537 10530 10521 10515 10512 10507 10504
10697 10697 10697 10698 10698 10699 10699 10699 10700 10701 10701 10701 10702 10702 10703 10704 10705 10705 10706 10706 10707 10708 10708 10709 10709 10709 10710 10709 10709 10708 10707 10706 10704 10703 10702 10700 10699 10697 10695 10693 10691 10688 10686 10684 10680 10677 10674 10670 10667 10663 10659 10656 10652 10649 10646 10643 10640 10636 10633 10629 10626 10623 10619 10616 10611 10607 10603 10598 10594 10587 10581 10577 10560 10548 10553 10553 10547 10545 10542 10539 10535 10529 10520 10512 10509 10506 10501 10498
10694 10693 10693 10694 10694 10694 10695 10695 10696 10697 10697 10697 10698 10698 10699 10700 10701 10702 10702 10703 10704 10705 10705 10706 10706 10706 10706 10705 10705 10704 10703 10702 10701 10699 10698 10697 10695 10693 10691 10689 10687 10684 10681 10680 10676 10672 10669 10665 10662 10658 10654 10650 10647 10643 10640 10637 10634 10631 10627 10624 10621 10618 10613 10610 10606 10601 10597 10591 10587 10581 10574 10569 10552 10536 10540 10545 10542 10540 10536 10532 10528 10520 10512 10506 10503 10500 10496 10493
10690 10689 10689 10689 10689 10690 10691 10691 10692 10693 10693 10693 10694 10694 10695 10696 10697 10698 10699 10700 10701 10702 10702 10703 10703 10703 10702 10702 10701 10701 10700 10699 10697 10696 10694 10693 10691 10689 10687 10685 10683 10680 10677 10675 10672 10668 10665 10660 10657 10652 10648 10645 10641 10637 10633 10630 10627 10624 10621 10618 10615 10612 10608 10604 10600 10595 10591 10586 10581 10575 10567 10560 10547 10530 10527 10532 10537 10536 10532 10526 10519 10511 10505 10501 10498 10495 10491 10488
10686 10684 10684 10684 10685 10685 10686 10687 10688 10688 10688 10689 10689 10690 10691 10692 10694 10695 10696 10697 10699 10699 10699 10700 10699 10699 10699 10698 10698 10698 10697 10696 10694 10692 10691 10689 10687 10685 10683 10681 10678 10676 10673 10670 10667 10664 10660 10655 10651 10647 10643 10639 10635 10631 10627 10624 10621 10617 10615 10612 10609 10606 10602 10599 10594 10588 10585 10580 10575 10569 10560 10550 10539 10526 10519 10523 10531 10533 10527 10519 10509 10504 10500 10495 10493 10491 10488 10484
10681 10680 10679 10679 10680 10680 10681 10682 10683 10684 10684 10685 10685 10687 10688 10689 10690 10691 10693 10694 10695 10696 10696 10696 10696 10696 10696 10695 10695 10695 10693 10692 10690 10689 10687 10685 10683 10680 10678 10676 10674 10672 10669 10665 10662 10659 10654 10650 10646 10641 10637 10633 10628 10624 10621 10617 10613 10610 10607 10604 10602 10599 10596 10594 10590 10584 10579 10575 10569 10562 10554 10542 10529 10517 10513 10518 10526 10526 10519 10511 10504 10499 10495 10491 10488 10486 10483 10479
10677 10675 10674 10674 10675 10676 10677 10678 10679 10679 10680 10681 10682 10684 10685 10686 10687 10689 10691 10692 10693 10693 10693 10693 10693 10692 10692 10692 10692 10691 10690 10688 10687 10685 10683 10681 10678 10676 10673 10672 10670 10668 10666 10661 10657 10654 10649 10644 10639 10635 10631 10626 10622 10618 10614 10611 10607 10603 10598 10594 10592 10591 10590 10589 10584 10579 10574 10569 10564 10555 10546 10535 10521 10509 10508 10515 10520 10517 10510 10504 10500 10496 10492 10488 10484 10481 10477 10474
10672 10671 10671 10671 10671 10672 10673 10674 10675 10676 10677 10678 10679 10681 10682 10684 10686 10687 10689 10690 10690 10690 10690 10690 10689 10689 10689 10689 10689 10688 10687 10684 10683 10681 10679 10676 10674 10671 10668 10666 10664 10662 10661 10658 10654 10650 10645 10639 10634 10629 10625 10620 10615 10611 10608 10604 10601 10596 10591 10587 10583 10580 10580 10581 10578 10574 10569 10563 10558 10549 10539 10528 10514 10505 10507 10514 10514 10508 10503 10497 10494 10491 10487 10483 10479 10475 10471 10467
10670 10669 10668 10668 10669 10670 10671 10672 10673 10674 10675 10676 10677 10678 10680 10682 10684 10685 10686 10687 10687 10687 10687 10687 10686 10686 10686 10686 10685 10685 10683 10681 10679 10677 10675 10672 10669 10666 10663 10661 10659 10656 10654 10652 10649 10646 10642 10636 10629 10624 10619 10614 10609 10605 10601 10598 10595 10591 10585 10581 10577 10571 10568 10569 10568 10565 10562 10558 10552 10542 10532 10520 10508 10503 10506 10510 10507 10501 10496 10490 10486 10483 10480 10477 10472 10468 10465 10460
10668 10667 10667 10667 10667 10668 10669 10670 10671 10672 10673 10674 10675 10676 10678 10680 10681 10682 10683 10683 10684 10684 10685 10685 10684 10683 10683 10683 10682 10681 10679 10677 10674 10672 10670 10667 10664 10661 10658 10656 10653 10650 10648 10645 10643 10640 10637 10631 10625 10619 10613 10607 10603 10599 10595 10591 10588 10585 10580 10575 10571 10566 10561 10558 10558 10554 10551 10550 10545 10536 10525 10512 10503 10501 10502 10502 10499 10494 10489 10483 10477 10474 10471 10467 10463 10459 10454 10449
10667 10666 10666 10666 10666 10666 10667 10668 10669 10670 10671 10672 10674 10675 10677 10678 10679 10680 10680 10681 10682 10682 10682 10682 10681 10680 10680 10680 10678 10677 10675 10673 10670 10667 10664 10662 10659 10656 10654 10652 10648 10645 10642 10638 10635 10633 10631 10626 10620 10613 10607 10601 10597 10593 10588 10583 10580 10577 10574 10569 10565 10561 10555 10551 10551 10547 10542 10540 10537 10529 10518 10506 10501 10501 10498 10495 10492 10487 10482 10475 10467 10462 10458 10454 10451 10446 10442 10437
10666 10665 10665 10665 10665 10665 10666 10667 10668 10669 10670 10671 10672 10674 10675 10676 10677 10678 10679 10679 10680 10679 10679 10679 10678 10677 10676 10675 10674 10672 10670 10668 10665 10663 10660 10657 10654 10652 10649 10646 10643 10639 10636 10632 10629 10625 10623 10620 10614 10606 10600 10595 10590 10587 10582 10576 10572 10569 10566 10562 10558 10555 10551 10546 10543 10541 10536 10534 10531 10524 10514 10501 10497 10499 10496 10491 10487 10482 10477 10469 10461 10455 10449 10444 10441 10436 10431 10426
10665 10664 10664 10664 10664 10665 10665 10666 10667 10668 10669 10670 10671 10672 10673 10675 10676 10676 10677 10677 10677 10676 10676 10676 10675 10674 10672 10670 10669 10667 10665 10663 10661 10659 10656 10653 10650 10647 10645 10641 10637 10634 10630 10626 10623 10619 10615 10613 10609 10600 10592 10588 10584 10579 10575 10570 10566 10562 10558 10555 10551 10548 10545 10541 10537 10533 10531 10530 10527 10522 10511 10496 10492 10495 10492 10487 10484 10480 10475 10467 10460 10453 10446 10441 10437 10431 10426 10421
10664 10664 10663 10663 10664 10664 10664 10665 10666 10667 10668 10669 10670 10671 10672 10673 10673 10674 10674 10674 10674 10673 10673 10672 10671 10669 10668 10666 10665 10662 10660 10658 10656 10654 10651 10648 10645 10642 10639 10635 10632 10628 10624 10620 10617 10613 10608 10606 10603 10595 10587 10582 10578 10572 10569 10565 10561 10557 10552 10549 10545 10541 10538 10534 10530 10525 10524 10524 10522 10520 10512 10493 10487 10491 10487 10482 10480 10475 10470 10464 10457 10450 10442 10435 10432 10427 10422 10416
10663 10663 10663 10663 10663 10663 10663 10664 10665 10665 10666 10667 10668 10669 10670 10671 10671 10671 10671 10671 10671 10670 10669 10669 10667 10665 10664 10662 10661 10659 10656 10653 10651 10648 10646 10643 10640 10637 10634 10630 10626 10622 10618 10614 10610 10606 10602 10598 10595 10589 10581 10576 10571 10566 10563 10559 10555 10552 10548 10544 10540 10536 10532 10528 10525 10519 10516 10516 10514 10515 10511 10492 10481 10485 10482 10476 10474 10468 10462 10457 10451 10443 10434 10427 10422 10417 10412 10406
10662 10662 10662 10662 10662 10662 10663 10663 10664 10664 10665 10666 10667 10667 10668 10669 10669 10668 10668 10668 10667 10667 10666 10665 10663 10662 10660 10658 10656 10654 10652 10649 10645 10643 10640 10637 10634 10632 10628 10624 10621 10617 10612 10608 10603 10599 10596 10592 10588 10582 10575 10570 10564 10559 10556 10553 10549 10546 10543 10539 10534 10529 10525 10523 10521 10515 10510 10507 10504 10506 10505 10490 10476 10476 10475 10469 10465 10459 10452 10447 10442 10434 10425 10418 10412 10406 10399 10392
10660 10661 10660 10660 10661 10661 10661 10662 10663 10663 10664 10664 10665 10665 10666 10666 10666 10666 10665 10665 10664 10663 10662 10661 10660 10658 10656 10654 10652 10650 10648 10644 10640 10637 10635 10632 10629 10625 10622 10618 10615 10611 10606 10602 10597 10592 10588 10585 10581 10575 10569 10563 10558 10553 10550 10547 10544 10541 10537 10533 10528 10522 10518 10516 10514 10512 10507 10501 10496 10496 10497 10487 10472 10466 10466 10462 10457 10450 10443 10437 10431 10425 10416 10407 10401 10395 10387 10379
10659 10659 10659 10659 10659 10660 10660 10661 10661 10662 10662 10663 10663 10663 10663 10664 10663 10663 10662 10662 10661 10660 10659 10657 10655 10654 10652 10649 10647 10645 10643 10640 10636 10632 10630 10627 10623 10620 10616 10612 10608 10604 10600 10596 10591 10586 10582 10578 10574 10571 10564 10557 10551 10548 10545 10541 10538 10535 10531 10526 10521 10516 10512 10509 10506 10505 10502 10497 10490 10488 10489 10481 10467 10459 10458 10454 10447 10440 10432 10425 10418 10412 10405 10397 10391 10383 10375 10368
10657 10657 10658 10658 10658 10658 10659 10659 10659 10660 10660 10661 10661 10661 10661 10661 10660 10660 10659 10658 10657 10656 10654 10653 10651 10649 10647 10644 10642 10639 10637 10635 10632 10628 10625 10622 10618 10613 10610 10606 10602 10598 10594 10590 10585 10580 10576 10571 10567 10565 10560 10554 10548 10544 10541 10536 10532 10529 10525 10520 10515 10510 10506 10503 10500 10497 10495 10491 10483 10477 10479 10474 10459 10450 10449 10445 10438 10430 10422 10413 10405 10398 10391 10387 10382 10375 10366 10356
10656 10656 10656 10656 10657 10657 10657 10657 10657 10658 10658 10659 10659 10658 10658 10658 10657 10657 10656 10655 10653 10652 10650 10648 10646 10644 10642 10639 10637 10634 10631 10629 10626 10623 10619 10616 10612 10607 10603 10599 10595 10591 10587 10584 10579 10575 10570 10564 10559 10556 10553 10551 10548 10543 10539 10533 10528 10524 10520 10514 10509 10504 10500 10496 10492 10489 10487 10485 10477 10468 10468 10468 10454 10441 10438 10434 10427 10421 10413 10404 10395 10386 10378 10373 10368 10363 10354 10345
10654 10655 10655 10655 10655 10655 10655 10655 10656 10656 10656 10656 10656 10655 10655 10654 10653 10653 10652 10650 10649 10647 10646 10644 10641 10639 10637 10634 10631 10629 10626 10623 10620 10617 10613 10609 10606 10601 10597 10593 10589 10585 10581 10577 10573 10570 10564 10558 10553 10548 10544 10544 10543 10539 10535 10531 10525 10521 10516 10510 10505 10501 10496 10490 10485 10482 10479 10478 10474 10460 10454 10457 10450 10438 10431 10425 10418 10412 10404 10395 10385 10375 10367 10361 10355 10349 10340 10331
10652 10653 10653 10653 10653 10653 10653 10654 10654 10654 10653 10653 10653 10652 10651 10650 10649 10648 10647 10646 10644 10642 10641 10639 10637 10634 10632 10629 10626 10623 10620 10617 10614 10610 10607 10603 10599 10595 10591 10587 10583 10579 10575 10571 10567 10564 10559 10553 10548 10542 10538 10538 10537 10532 10529 10526 10522 10518 10512 10506 10501 10496 10491 10484 10478 10475 10471 10469 10467 10457 10444 10440 10437 10431 10423 10414 10406 10401 10393 10384 10374 10364 10357 10350 10342 10335 10326 10315
10650 10651 10651 10651 10651 10651 10651 10651 10651 10651 10650 10650 10649 10648 10647 10646 10645 10644 10643 10641 10639 10638 10636 10634 10631 10629 10627 10624 10622 10618 10615 10611 10608 10604 10600 10596 10592 10589 10585 10581 10577 10573 10569 10565 10561 10557 10553 10548 10543 10538 10532 10532 10532 10527 10523 10520 10516 10512 10507 10501 10496 10491 10485 10478 10470 10465 10462 10459 10455 10450 10439 10429 10422 10417 10410 10399 10390 10384 10379 10371 10361 10350 10342 10336 10327 10319 10309 10299
10648 10649 10649 10649 10649 10649 10649 10649 10648 10648 10647 10646 10646 10645 10644 10642 10641 10640 10638 10637 10635 10633 10631 10629 10626 10624 10622 10619 10616 10613 10609 10606 10602 10597 10593 10590 10586 10583 10579 10575 10571 10567 10563 10559 10555 10552 10548 10543 10539 10534 10527 10525 10525 10521 10517 10514 10509 10505 10499 10493 10489 10484 10477 10471 10462 10455 10453 10449 10442 10437 10431 10421 10410 10402 10396 10386 10375 10367 10361 10354 10344 10332 10324 10318 10310 10301 10291 10282
10646 10647 10647 10647 10647 10647 10647 10646 10645 10645 10643 10643 10642 10641 10640 10639 10637 10636 10634 10632 10630 10628 10626 10624 10621 10619 10616 10613 10610 10607 10603 10600 10596 10592 10588 10584 10580 10577 10573 10569 10565 10561 10557 10553 10549 10546 10544 10540 10536 10532 10525 10519 10518 10515 10511 10507 10503 10497 10491 10485 10480 10476 10470 10462 10453 10446 10443 10440 10432 10423 10418 10412 10403 10394 10386 10376 10362 10350 10342 10336 10327 10316 10308 10301 10293 10285 10275 10266
10645 10645 10645 10644 10644 10644 10644 10643 10642 10641 10640 10639 10638 10637 10636 10635 10633 10632 10630 10628 10626 10623 10621 10619 10616 10613 10611 10608 10604 10601 10597 10594 10591 10587 10583 10579 10575 10572 10568 10564 10561 10556 10552 10549 10545 10542 10540 10537 10533 10529 10523 10516 10512 10509 10505 10501 10497 10491 10485 10478 10473 10467 10462 10454 10444 10435 10432 10430 10424 10415 10408 10402 10396 10390 10382 10371 10355 10338 10325 10317 10308 10300 10293 10285 10275 10266 10257 10248
10643 10643 10642 10642 10641 10641 10641 10640 10639 10638 10637 10636 10635 10633 10632 10631 10629 10628 10626 10623 10621 10619 10616 10613 10611 10608 10605 10602 10599 10596 10592 10588 10585 10581 10578 10574 10570 10566 10563 10560 10556 10552 10548 10545 10542 10539 10536 10533 10529 10526 10520 10513 10508 10504 10500 10496 10492 10486 10479 10472 10466 10460 10454 10447 10436 10424 10418 10415 10411 10404 10398 10391 10383 10377 10371 10365 10354 10336 10318 10304 10292 10284 10277 10269 10259 10247 10236 10227